owner,sensor,date,latitude,longitude,sea_surface_height_above_sea_level,qcFlag 
COMPS,ioos:station:USF.COMPS:ARP:1,2019-02-01T00:00:00Z,28.4330,-82.6670,-9.945,1111122 
COMPS,ioos:station:USF.COMPS:ARP:1,2019-02-01T00:06:00Z,28.4330,-82.6670,-9.937,1111122 
COMPS,ioos:station:USF.COMPS:ARP:1,2019-02-01T00:12:00Z,28.4330,-82.6670,-9.93,1111122 
COMPS,ioos:station:USF.COMPS:ARP:1,2019-02-01T00:18:00Z,28.4330,-82.6670,-9.922,1111122 
COMPS,ioos:station:USF.COMPS:ARP:1,2019-02-01T00:24:00Z,28.4330,-82.6670,-9.914,1111122 
COMPS,ioos:station:USF.COMPS:ARP:1,2019-02-01T00:30:00Z,28.4330,-82.6670,-9.903,1111122 
COMPS,ioos:station:USF.COMPS:ARP:1,2019-02-01T00:36:00Z,28.4330,-82.6670,-9.898,1111122 
COMPS,ioos:station:USF.COMPS:ARP:1,2019-02-01T00:42:00Z,28.4330,-82.6670,-9.888,1111122 
COMPS,ioos:station:USF.COMPS:ARP:1,2019-02-01T00:48:00Z,28.4330,-82.6670,-9.872,1111122 
COMPS,ioos:station:USF.COMPS:ARP:1,2019-02-01T00:54:00Z,28.4330,-82.6670,-9.868,1111122 
COMPS,ioos:station:USF.COMPS:ARP:1,2019-02-01T01:00:00Z,28.4330,-82.6670,-9.862,1111122 
COMPS,ioos:station:USF.COMPS:ARP:1,2019-02-01T01:06:00Z,28.4330,-82.6670,-9.841,1111122 
COMPS,ioos:station:USF.COMPS:ARP:1,2019-02-01T01:12:00Z,28.4330,-82.6670,-9.832,1111122 
COMPS,ioos:station:USF.COMPS:ARP:1,2019-02-01T01:18:00Z,28.4330,-82.6670,-9.822,1111122 
COMPS,ioos:station:USF.COMPS:ARP:1,2019-02-01T01:24:00Z,28.4330,-82.6670,-9.814,1111122 
COMPS,ioos:station:USF.COMPS:ARP:1,2019-02-01T01:30:00Z,28.4330,-82.6670,-9.811,1111122 
COMPS,ioos:station:USF.COMPS:ARP:1,2019-02-01T01:36:00Z,28.4330,-82.6670,-9.812,1111122 
COMPS,ioos:station:USF.COMPS:ARP:1,2019-02-01T01:42:00Z,28.4330,-82.6670,-9.818,1111122 
COMPS,ioos:station:USF.COMPS:ARP:1,2019-02-01T01:48:00Z,28.4330,-82.6670,-9.825,1111122 
COMPS,ioos:station:USF.COMPS:ARP:1,2019-02-01T01:54:00Z,28.4330,-82.6670,-9.83,1111122 
COMPS,ioos:station:USF.COMPS:ARP:1,2019-02-01T02:00:00Z,28.4330,-82.6670,-9.822,1111122 
COMPS,ioos:station:USF.COMPS:ARP:1,2019-02-01T02:06:00Z,28.4330,-82.6670,-9.823,1111122 
COMPS,ioos:station:USF.COMPS:ARP:1,2019-02-01T02:12:00Z,28.4330,-82.6670,-9.825,1111122 
COMPS,ioos:station:USF.COMPS:ARP:1,2019-02-01T02:18:00Z,28.4330,-82.6670,-9.833,1111122 
COMPS,ioos:station:USF.COMPS:ARP:1,2019-02-01T02:24:00Z,28.4330,-82.6670,-9.845,1111122 
COMPS,ioos:station:USF.COMPS:ARP:1,2019-02-01T02:30:00Z,28.4330,-82.6670,-9.867,1111122 
COMPS,ioos:station:USF.COMPS:ARP:1,2019-02-01T02:36:00Z,28.4330,-82.6670,-9.871,1111122 
COMPS,ioos:station:USF.COMPS:ARP:1,2019-02-01T02:42:00Z,28.4330,-82.6670,-9.875,1111122 
COMPS,ioos:station:USF.COMPS:ARP:1,2019-02-01T02:48:00Z,28.4330,-82.6670,-9.884,1111122 
COMPS,ioos:station:USF.COMPS:ARP:1,2019-02-01T02:54:00Z,28.4330,-82.6670,-9.884,1111122 
COMPS,ioos:station:USF.COMPS:ARP:1,2019-02-01T03:00:00Z,28.4330,-82.6670,-9.885,1111122 
COMPS,ioos:station:USF.COMPS:ARP:1,2019-02-01T03:06:00Z,28.4330,-82.6670,-9.876,1111122 
COMPS,ioos:station:USF.COMPS:ARP:1,2019-02-01T03:12:00Z,28.4330,-82.6670,-9.876,1111122 
COMPS,ioos:station:USF.COMPS:ARP:1,2019-02-01T03:18:00Z,28.4330,-82.6670,-9.878,1111122 
COMPS,ioos:station:USF.COMPS:ARP:1,2019-02-01T03:24:00Z,28.4330,-82.6670,-9.875,1111122 
COMPS,ioos:station:USF.COMPS:ARP:1,2019-02-01T03:30:00Z,28.4330,-82.6670,-9.893,1111122 
COMPS,ioos:station:USF.COMPS:ARP:1,2019-02-01T03:36:00Z,28.4330,-82.6670,-9.899,1111122 
COMPS,ioos:station:USF.COMPS:ARP:1,2019-02-01T03:42:00Z,28.4330,-82.6670,-9.907,1111122 
COMPS,ioos:station:USF.COMPS:ARP:1,2019-02-01T03:48:00Z,28.4330,-82.6670,-9.921,1111122 
COMPS,ioos:station:USF.COMPS:ARP:1,2019-02-01T03:54:00Z,28.4330,-82.6670,-9.934,1111122 
COMPS,ioos:station:USF.COMPS:ARP:1,2019-02-01T04:00:00Z,28.4330,-82.6670,-9.945,1111122 
COMPS,ioos:station:USF.COMPS:ARP:1,2019-02-01T04:06:00Z,28.4330,-82.6670,-9.964,1111122 
COMPS,ioos:station:USF.COMPS:ARP:1,2019-02-01T04:12:00Z,28.4330,-82.6670,-9.976,1111122 
COMPS,ioos:station:USF.COMPS:ARP:1,2019-02-01T04:18:00Z,28.4330,-82.6670,-9.986,1111122 
COMPS,ioos:station:USF.COMPS:ARP:1,2019-02-01T04:24:00Z,28.4330,-82.6670,-9.993,1111122 
COMPS,ioos:station:USF.COMPS:ARP:1,2019-02-01T15:48:00Z,28.4330,-82.6670,-9.986,1111122 
COMPS,ioos:station:USF.COMPS:ARP:1,2019-02-01T15:54:00Z,28.4330,-82.6670,-9.967,1111122 
COMPS,ioos:station:USF.COMPS:ARP:1,2019-02-01T16:00:00Z,28.4330,-82.6670,-9.948,1111122 
COMPS,ioos:station:USF.COMPS:ARP:1,2019-02-01T16:06:00Z,28.4330,-82.6670,-9.932,1111122 
COMPS,ioos:station:USF.COMPS:ARP:1,2019-02-01T16:12:00Z,28.4330,-82.6670,-9.91,1111122 
COMPS,ioos:station:USF.COMPS:ARP:1,2019-02-01T16:18:00Z,28.4330,-82.6670,-9.891,1111122 
COMPS,ioos:station:USF.COMPS:ARP:1,2019-02-01T16:24:00Z,28.4330,-82.6670,-9.874,1111122 
COMPS,ioos:station:USF.COMPS:ARP:1,2019-02-01T16:30:00Z,28.4330,-82.6670,-9.852,1111122 
COMPS,ioos:station:USF.COMPS:ARP:1,2019-02-01T16:36:00Z,28.4330,-82.6670,-9.839,1111122 
COMPS,ioos:station:USF.COMPS:ARP:1,2019-02-01T16:42:00Z,28.4330,-82.6670,-9.829,1111122 
COMPS,ioos:station:USF.COMPS:ARP:1,2019-02-01T16:48:00Z,28.4330,-82.6670,-9.821,1111122 
COMPS,ioos:station:USF.COMPS:ARP:1,2019-02-01T16:54:00Z,28.4330,-82.6670,-9.813,1111122 
COMPS,ioos:station:USF.COMPS:ARP:1,2019-02-01T17:00:00Z,28.4330,-82.6670,-9.81,1111122 
COMPS,ioos:station:USF.COMPS:ARP:1,2019-02-01T17:06:00Z,28.4330,-82.6670,-9.817,1111122 
COMPS,ioos:station:USF.COMPS:ARP:1,2019-02-01T17:12:00Z,28.4330,-82.6670,-9.821,1111122 
COMPS,ioos:station:USF.COMPS:ARP:1,2019-02-01T17:18:00Z,28.4330,-82.6670,-9.822,1111122 
COMPS,ioos:station:USF.COMPS:ARP:1,2019-02-01T17:24:00Z,28.4330,-82.6670,-9.812,1111122 
COMPS,ioos:station:USF.COMPS:ARP:1,2019-02-01T17:30:00Z,28.4330,-82.6670,-9.813,1111122 
COMPS,ioos:station:USF.COMPS:ARP:1,2019-02-01T17:36:00Z,28.4330,-82.6670,-9.818,1111122 
COMPS,ioos:station:USF.COMPS:ARP:1,2019-02-01T17:42:00Z,28.4330,-82.6670,-9.824,1111122 
COMPS,ioos:station:USF.COMPS:ARP:1,2019-02-01T17:48:00Z,28.4330,-82.6670,-9.841,1111122 
COMPS,ioos:station:USF.COMPS:ARP:1,2019-02-01T17:54:00Z,28.4330,-82.6670,-9.861,1111122 
COMPS,ioos:station:USF.COMPS:ARP:1,2019-02-01T18:00:00Z,28.4330,-82.6670,-9.88,1111122 
COMPS,ioos:station:USF.COMPS:ARP:1,2019-02-01T18:06:00Z,28.4330,-82.6670,-9.893,1111122 
COMPS,ioos:station:USF.COMPS:ARP:1,2019-02-01T18:12:00Z,28.4330,-82.6670,-9.909,1111122 
COMPS,ioos:station:USF.COMPS:ARP:1,2019-02-01T18:18:00Z,28.4330,-82.6670,-9.908,1111122 
COMPS,ioos:station:USF.COMPS:ARP:1,2019-02-01T18:24:00Z,28.4330,-82.6670,-9.911,1111122 
COMPS,ioos:station:USF.COMPS:ARP:1,2019-02-01T18:30:00Z,28.4330,-82.6670,-9.904,1111122 
COMPS,ioos:station:USF.COMPS:ARP:1,2019-02-01T18:36:00Z,28.4330,-82.6670,-9.9,1111122 
COMPS,ioos:station:USF.COMPS:ARP:1,2019-02-01T18:42:00Z,28.4330,-82.6670,-9.902,1111122 
COMPS,ioos:station:USF.COMPS:ARP:1,2019-02-01T18:48:00Z,28.4330,-82.6670,-9.904,1111122 
COMPS,ioos:station:USF.COMPS:ARP:1,2019-02-01T18:54:00Z,28.4330,-82.6670,-9.901,1111122 
COMPS,ioos:station:USF.COMPS:ARP:1,2019-02-01T19:00:00Z,28.4330,-82.6670,-9.907,1111122 
COMPS,ioos:station:USF.COMPS:ARP:1,2019-02-01T19:06:00Z,28.4330,-82.6670,-9.914,1111122 
COMPS,ioos:station:USF.COMPS:ARP:1,2019-02-01T19:12:00Z,28.4330,-82.6670,-9.91,1111122 
COMPS,ioos:station:USF.COMPS:ARP:1,2019-02-01T19:18:00Z,28.4330,-82.6670,-9.922,1111122 
COMPS,ioos:station:USF.COMPS:ARP:1,2019-02-01T19:24:00Z,28.4330,-82.6670,-9.933,1111122 
COMPS,ioos:station:USF.COMPS:ARP:1,2019-02-01T19:30:00Z,28.4330,-82.6670,-9.934,1111122 
COMPS,ioos:station:USF.COMPS:ARP:1,2019-02-01T19:36:00Z,28.4330,-82.6670,-9.935,1111122 
COMPS,ioos:station:USF.COMPS:ARP:1,2019-02-01T19:42:00Z,28.4330,-82.6670,-9.95,1111122 
COMPS,ioos:station:USF.COMPS:ARP:1,2019-02-01T19:48:00Z,28.4330,-82.6670,-9.953,1111122 
COMPS,ioos:station:USF.COMPS:ARP:1,2019-02-01T19:54:00Z,28.4330,-82.6670,-9.966,1111122 
COMPS,ioos:station:USF.COMPS:ARP:1,2019-02-01T20:00:00Z,28.4330,-82.6670,-9.985,1111122 
COMPS,ioos:station:USF.COMPS:ARP:1,2019-02-01T20:06:00Z,28.4330,-82.6670,-9.996,1111122 
COMPS,ioos:station:USF.COMPS:ARP:1,2019-02-01T23:48:00Z,28.4330,-82.6670,-9.99,1111122 
COMPS,ioos:station:USF.COMPS:ARP:1,2019-02-01T23:54:00Z,28.4330,-82.6670,-9.968,1111122 
COMPS,ioos:station:USF.COMPS:ARP:1,2019-02-02T00:00:00Z,28.4330,-82.6670,-9.956,1111122 
COMPS,ioos:station:USF.COMPS:ARP:1,2019-02-02T00:06:00Z,28.4330,-82.6670,-9.937,1111122 
COMPS,ioos:station:USF.COMPS:ARP:1,2019-02-02T00:12:00Z,28.4330,-82.6670,-9.918,1111122 
COMPS,ioos:station:USF.COMPS:ARP:1,2019-02-02T00:18:00Z,28.4330,-82.6670,-9.91,1111122 
COMPS,ioos:station:USF.COMPS:ARP:1,2019-02-02T00:24:00Z,28.4330,-82.6670,-9.898,1111122 
COMPS,ioos:station:USF.COMPS:ARP:1,2019-02-02T00:30:00Z,28.4330,-82.6670,-9.876,1111122 
COMPS,ioos:station:USF.COMPS:ARP:1,2019-02-02T00:36:00Z,28.4330,-82.6670,-9.855,1111122 
COMPS,ioos:station:USF.COMPS:ARP:1,2019-02-02T00:42:00Z,28.4330,-82.6670,-9.844,1111122 
COMPS,ioos:station:USF.COMPS:ARP:1,2019-02-02T00:48:00Z,28.4330,-82.6670,-9.821,1111122 
COMPS,ioos:station:USF.COMPS:ARP:1,2019-02-02T00:54:00Z,28.4330,-82.6670,-9.804,1111122 
COMPS,ioos:station:USF.COMPS:ARP:1,2019-02-02T01:00:00Z,28.4330,-82.6670,-9.788,1111122 
COMPS,ioos:station:USF.COMPS:ARP:1,2019-02-02T01:06:00Z,28.4330,-82.6670,-9.772,1111122 
COMPS,ioos:station:USF.COMPS:ARP:1,2019-02-02T01:12:00Z,28.4330,-82.6670,-9.754,1111122 
COMPS,ioos:station:USF.COMPS:ARP:1,2019-02-02T01:18:00Z,28.4330,-82.6670,-9.737,1111122 
COMPS,ioos:station:USF.COMPS:ARP:1,2019-02-02T01:24:00Z,28.4330,-82.6670,-9.718,1111122 
COMPS,ioos:station:USF.COMPS:ARP:1,2019-02-02T01:30:00Z,28.4330,-82.6670,-9.704,1111122 
COMPS,ioos:station:USF.COMPS:ARP:1,2019-02-02T01:36:00Z,28.4330,-82.6670,-9.684,1111122 
COMPS,ioos:station:USF.COMPS:ARP:1,2019-02-02T01:42:00Z,28.4330,-82.6670,-9.658,1111122 
COMPS,ioos:station:USF.COMPS:ARP:1,2019-02-02T01:48:00Z,28.4330,-82.6670,-9.651,1111122 
COMPS,ioos:station:USF.COMPS:ARP:1,2019-02-02T01:54:00Z,28.4330,-82.6670,-9.639,1111122 
COMPS,ioos:station:USF.COMPS:ARP:1,2019-02-02T02:00:00Z,28.4330,-82.6670,-9.622,1111122 
COMPS,ioos:station:USF.COMPS:ARP:1,2019-02-02T02:06:00Z,28.4330,-82.6670,-9.608,1111122 
COMPS,ioos:station:USF.COMPS:ARP:1,2019-02-02T02:12:00Z,28.4330,-82.6670,-9.598,1111122 
COMPS,ioos:station:USF.COMPS:ARP:1,2019-02-02T02:18:00Z,28.4330,-82.6670,-9.59,1111122 
COMPS,ioos:station:USF.COMPS:ARP:1,2019-02-02T02:24:00Z,28.4330,-82.6670,-9.579,1111122 
COMPS,ioos:station:USF.COMPS:ARP:1,2019-02-02T02:30:00Z,28.4330,-82.6670,-9.575,1111122 
COMPS,ioos:station:USF.COMPS:ARP:1,2019-02-02T02:36:00Z,28.4330,-82.6670,-9.578,1111122 
COMPS,ioos:station:USF.COMPS:ARP:1,2019-02-02T02:42:00Z,28.4330,-82.6670,-9.574,1111122 
COMPS,ioos:station:USF.COMPS:ARP:1,2019-02-02T02:48:00Z,28.4330,-82.6670,-9.572,1111122 
COMPS,ioos:station:USF.COMPS:ARP:1,2019-02-02T02:54:00Z,28.4330,-82.6670,-9.566,1111122 
COMPS,ioos:station:USF.COMPS:ARP:1,2019-02-02T03:00:00Z,28.4330,-82.6670,-9.559,1111122 
COMPS,ioos:station:USF.COMPS:ARP:1,2019-02-02T03:06:00Z,28.4330,-82.6670,-9.557,1111122 
COMPS,ioos:station:USF.COMPS:ARP:1,2019-02-02T03:12:00Z,28.4330,-82.6670,-9.552,1111122 
COMPS,ioos:station:USF.COMPS:ARP:1,2019-02-02T03:18:00Z,28.4330,-82.6670,-9.547,1111122 
COMPS,ioos:station:USF.COMPS:ARP:1,2019-02-02T03:24:00Z,28.4330,-82.6670,-9.544,1111122 
COMPS,ioos:station:USF.COMPS:ARP:1,2019-02-02T03:30:00Z,28.4330,-82.6670,-9.535,1111122 
COMPS,ioos:station:USF.COMPS:ARP:1,2019-02-02T03:36:00Z,28.4330,-82.6670,-9.529,1111122 
COMPS,ioos:station:USF.COMPS:ARP:1,2019-02-02T03:42:00Z,28.4330,-82.6670,-9.524,1111122 
COMPS,ioos:station:USF.COMPS:ARP:1,2019-02-02T03:48:00Z,28.4330,-82.6670,-9.521,1111122 
COMPS,ioos:station:USF.COMPS:ARP:1,2019-02-02T03:54:00Z,28.4330,-82.6670,-9.516,1111122 
COMPS,ioos:station:USF.COMPS:ARP:1,2019-02-02T04:00:00Z,28.4330,-82.6670,-9.525,1111122 
COMPS,ioos:station:USF.COMPS:ARP:1,2019-02-02T04:06:00Z,28.4330,-82.6670,-9.531,1111122 
COMPS,ioos:station:USF.COMPS:ARP:1,2019-02-02T04:12:00Z,28.4330,-82.6670,-9.544,1111122 
COMPS,ioos:station:USF.COMPS:ARP:1,2019-02-02T04:18:00Z,28.4330,-82.6670,-9.551,1111122 
COMPS,ioos:station:USF.COMPS:ARP:1,2019-02-02T04:24:00Z,28.4330,-82.6670,-9.588,1111122 
COMPS,ioos:station:USF.COMPS:ARP:1,2019-02-02T04:30:00Z,28.4330,-82.6670,-9.575,1111122 
COMPS,ioos:station:USF.COMPS:ARP:1,2019-02-02T04:36:00Z,28.4330,-82.6670,-9.594,1111122 
COMPS,ioos:station:USF.COMPS:ARP:1,2019-02-02T04:42:00Z,28.4330,-82.6670,-9.598,1111122 
COMPS,ioos:station:USF.COMPS:ARP:1,2019-02-02T04:48:00Z,28.4330,-82.6670,-9.616,1111122 
COMPS,ioos:station:USF.COMPS:ARP:1,2019-02-02T04:54:00Z,28.4330,-82.6670,-9.64,1111122 
COMPS,ioos:station:USF.COMPS:ARP:1,2019-02-02T05:00:00Z,28.4330,-82.6670,-9.652,1111122 
COMPS,ioos:station:USF.COMPS:ARP:1,2019-02-02T05:06:00Z,28.4330,-82.6670,-9.671,1111122 
COMPS,ioos:station:USF.COMPS:ARP:1,2019-02-02T05:12:00Z,28.4330,-82.6670,-9.691,1111122 
COMPS,ioos:station:USF.COMPS:ARP:1,2019-02-02T05:18:00Z,28.4330,-82.6670,-9.712,1111122 
COMPS,ioos:station:USF.COMPS:ARP:1,2019-02-02T05:24:00Z,28.4330,-82.6670,-9.723,1111122 
COMPS,ioos:station:USF.COMPS:ARP:1,2019-02-02T05:30:00Z,28.4330,-82.6670,-9.735,1111122 
COMPS,ioos:station:USF.COMPS:ARP:1,2019-02-02T05:36:00Z,28.4330,-82.6670,-9.742,1111122 
COMPS,ioos:station:USF.COMPS:ARP:1,2019-02-02T05:42:00Z,28.4330,-82.6670,-9.756,1111122 
COMPS,ioos:station:USF.COMPS:ARP:1,2019-02-02T05:48:00Z,28.4330,-82.6670,-9.759,1111122 
COMPS,ioos:station:USF.COMPS:ARP:1,2019-02-02T05:54:00Z,28.4330,-82.6670,-9.775,1111122 
COMPS,ioos:station:USF.COMPS:ARP:1,2019-02-02T06:00:00Z,28.4330,-82.6670,-9.793,1111122 
COMPS,ioos:station:USF.COMPS:ARP:1,2019-02-02T06:06:00Z,28.4330,-82.6670,-9.812,1111122 
COMPS,ioos:station:USF.COMPS:ARP:1,2019-02-02T06:12:00Z,28.4330,-82.6670,-9.834,1111122 
COMPS,ioos:station:USF.COMPS:ARP:1,2019-02-02T06:18:00Z,28.4330,-82.6670,-9.854,1111122 
COMPS,ioos:station:USF.COMPS:ARP:1,2019-02-02T06:24:00Z,28.4330,-82.6670,-9.871,1111122 
COMPS,ioos:station:USF.COMPS:ARP:1,2019-02-02T06:30:00Z,28.4330,-82.6670,-9.889,1111122 
COMPS,ioos:station:USF.COMPS:ARP:1,2019-02-02T06:36:00Z,28.4330,-82.6670,-9.91,1111122 
COMPS,ioos:station:USF.COMPS:ARP:1,2019-02-02T06:42:00Z,28.4330,-82.6670,-9.925,1111122 
COMPS,ioos:station:USF.COMPS:ARP:1,2019-02-02T06:48:00Z,28.4330,-82.6670,-9.942,1111122 
COMPS,ioos:station:USF.COMPS:ARP:1,2019-02-02T06:54:00Z,28.4330,-82.6670,-9.959,1111122 
COMPS,ioos:station:USF.COMPS:ARP:1,2019-02-02T07:00:00Z,28.4330,-82.6670,-9.975,1111122 
COMPS,ioos:station:USF.COMPS:ARP:1,2019-02-02T07:06:00Z,28.4330,-82.6670,-9.989,1111122 
COMPS,ioos:station:USF.COMPS:ARP:1,2019-02-02T16:06:00Z,28.4330,-82.6670,-9.977,1111122 
COMPS,ioos:station:USF.COMPS:ARP:1,2019-02-02T16:12:00Z,28.4330,-82.6670,-9.955,1111122 
COMPS,ioos:station:USF.COMPS:ARP:1,2019-02-02T16:18:00Z,28.4330,-82.6670,-9.934,1111122 
COMPS,ioos:station:USF.COMPS:ARP:1,2019-02-02T16:24:00Z,28.4330,-82.6670,-9.917,1111122 
COMPS,ioos:station:USF.COMPS:ARP:1,2019-02-02T16:30:00Z,28.4330,-82.6670,-9.899,1111122 
COMPS,ioos:station:USF.COMPS:ARP:1,2019-02-02T16:36:00Z,28.4330,-82.6670,-9.883,1111122 
COMPS,ioos:station:USF.COMPS:ARP:1,2019-02-02T16:42:00Z,28.4330,-82.6670,-9.866,1111122 
COMPS,ioos:station:USF.COMPS:ARP:1,2019-02-02T16:48:00Z,28.4330,-82.6670,-9.85,1111122 
COMPS,ioos:station:USF.COMPS:ARP:1,2019-02-02T16:54:00Z,28.4330,-82.6670,-9.835,1111122 
COMPS,ioos:station:USF.COMPS:ARP:1,2019-02-02T17:00:00Z,28.4330,-82.6670,-9.822,1111122 
COMPS,ioos:station:USF.COMPS:ARP:1,2019-02-02T17:06:00Z,28.4330,-82.6670,-9.813,1111122 
COMPS,ioos:station:USF.COMPS:ARP:1,2019-02-02T17:12:00Z,28.4330,-82.6670,-9.797,1111122 
COMPS,ioos:station:USF.COMPS:ARP:1,2019-02-02T17:24:00Z,28.4330,-82.6670,-9.778,1111122 
COMPS,ioos:station:USF.COMPS:ARP:1,2019-02-02T17:30:00Z,28.4330,-82.6670,-9.766,1111122 
COMPS,ioos:station:USF.COMPS:ARP:1,2019-02-02T17:36:00Z,28.4330,-82.6670,-9.757,1111122 
COMPS,ioos:station:USF.COMPS:ARP:1,2019-02-02T17:42:00Z,28.4330,-82.6670,-9.748,1111122 
COMPS,ioos:station:USF.COMPS:ARP:1,2019-02-02T17:48:00Z,28.4330,-82.6670,-9.743,1111122 
COMPS,ioos:station:USF.COMPS:ARP:1,2019-02-02T17:54:00Z,28.4330,-82.6670,-9.732,1111122 
COMPS,ioos:station:USF.COMPS:ARP:1,2019-02-02T18:00:00Z,28.4330,-82.6670,-9.728,1111122 
COMPS,ioos:station:USF.COMPS:ARP:1,2019-02-02T18:06:00Z,28.4330,-82.6670,-9.728,1111122 
COMPS,ioos:station:USF.COMPS:ARP:1,2019-02-02T18:12:00Z,28.4330,-82.6670,-9.729,1111122 
COMPS,ioos:station:USF.COMPS:ARP:1,2019-02-02T18:24:00Z,28.4330,-82.6670,-9.743,1111122 
COMPS,ioos:station:USF.COMPS:ARP:1,2019-02-02T18:30:00Z,28.4330,-82.6670,-9.754,1111122 
COMPS,ioos:station:USF.COMPS:ARP:1,2019-02-02T18:36:00Z,28.4330,-82.6670,-9.758,1111122 
COMPS,ioos:station:USF.COMPS:ARP:1,2019-02-02T18:42:00Z,28.4330,-82.6670,-9.775,1111122 
COMPS,ioos:station:USF.COMPS:ARP:1,2019-02-02T18:48:00Z,28.4330,-82.6670,-9.781,1111122 
COMPS,ioos:station:USF.COMPS:ARP:1,2019-02-02T18:54:00Z,28.4330,-82.6670,-9.79,1111122 
COMPS,ioos:station:USF.COMPS:ARP:1,2019-02-02T19:00:00Z,28.4330,-82.6670,-9.803,1111122 
COMPS,ioos:station:USF.COMPS:ARP:1,2019-02-02T19:06:00Z,28.4330,-82.6670,-9.81,1111122 
COMPS,ioos:station:USF.COMPS:ARP:1,2019-02-02T19:12:00Z,28.4330,-82.6670,-9.817,1111122 
COMPS,ioos:station:USF.COMPS:ARP:1,2019-02-02T19:18:00Z,28.4330,-82.6670,-9.822,1111122 
COMPS,ioos:station:USF.COMPS:ARP:1,2019-02-02T19:24:00Z,28.4330,-82.6670,-9.828,1111122 
COMPS,ioos:station:USF.COMPS:ARP:1,2019-02-02T19:30:00Z,28.4330,-82.6670,-9.833,1111122 
COMPS,ioos:station:USF.COMPS:ARP:1,2019-02-02T19:36:00Z,28.4330,-82.6670,-9.841,1111122 
COMPS,ioos:station:USF.COMPS:ARP:1,2019-02-02T19:42:00Z,28.4330,-82.6670,-9.849,1111122 
COMPS,ioos:station:USF.COMPS:ARP:1,2019-02-02T19:48:00Z,28.4330,-82.6670,-9.861,1111122 
COMPS,ioos:station:USF.COMPS:ARP:1,2019-02-02T19:54:00Z,28.4330,-82.6670,-9.871,1111122 
COMPS,ioos:station:USF.COMPS:ARP:1,2019-02-02T20:00:00Z,28.4330,-82.6670,-9.882,1111122 
COMPS,ioos:station:USF.COMPS:ARP:1,2019-02-02T20:06:00Z,28.4330,-82.6670,-9.89,1111122 
COMPS,ioos:station:USF.COMPS:ARP:1,2019-02-02T20:12:00Z,28.4330,-82.6670,-9.899,1111122 
COMPS,ioos:station:USF.COMPS:ARP:1,2019-02-02T20:18:00Z,28.4330,-82.6670,-9.91,1111122 
COMPS,ioos:station:USF.COMPS:ARP:1,2019-02-02T20:24:00Z,28.4330,-82.6670,-9.919,1111122 
COMPS,ioos:station:USF.COMPS:ARP:1,2019-02-02T20:30:00Z,28.4330,-82.6670,-9.927,1111122 
COMPS,ioos:station:USF.COMPS:ARP:1,2019-02-02T20:36:00Z,28.4330,-82.6670,-9.937,1111122 
COMPS,ioos:station:USF.COMPS:ARP:1,2019-02-02T20:42:00Z,28.4330,-82.6670,-9.956,1111122 
COMPS,ioos:station:USF.COMPS:ARP:1,2019-02-02T20:48:00Z,28.4330,-82.6670,-9.97,1111122 
COMPS,ioos:station:USF.COMPS:ARP:1,2019-02-02T20:54:00Z,28.4330,-82.6670,-9.98,1111122 
COMPS,ioos:station:USF.COMPS:ARP:1,2019-02-02T21:00:00Z,28.4330,-82.6670,-9.995,1111122 
COMPS,ioos:station:USF.COMPS:ARP:1,2019-02-03T01:06:00Z,28.4330,-82.6670,-9.985,1111122 
COMPS,ioos:station:USF.COMPS:ARP:1,2019-02-03T01:12:00Z,28.4330,-82.6670,-9.968,1111122 
COMPS,ioos:station:USF.COMPS:ARP:1,2019-02-03T01:18:00Z,28.4330,-82.6670,-9.949,1111122 
COMPS,ioos:station:USF.COMPS:ARP:1,2019-02-03T01:24:00Z,28.4330,-82.6670,-9.933,1111122 
COMPS,ioos:station:USF.COMPS:ARP:1,2019-02-03T01:30:00Z,28.4330,-82.6670,-9.914,1111122 
COMPS,ioos:station:USF.COMPS:ARP:1,2019-02-03T01:36:00Z,28.4330,-82.6670,-9.899,1111122 
COMPS,ioos:station:USF.COMPS:ARP:1,2019-02-03T01:42:00Z,28.4330,-82.6670,-9.876,1111122 
COMPS,ioos:station:USF.COMPS:ARP:1,2019-02-03T01:48:00Z,28.4330,-82.6670,-9.855,1111122 
COMPS,ioos:station:USF.COMPS:ARP:1,2019-02-03T01:54:00Z,28.4330,-82.6670,-9.834,1111122 
COMPS,ioos:station:USF.COMPS:ARP:1,2019-02-03T02:00:00Z,28.4330,-82.6670,-9.814,1111122 
COMPS,ioos:station:USF.COMPS:ARP:1,2019-02-03T02:06:00Z,28.4330,-82.6670,-9.795,1111122 
COMPS,ioos:station:USF.COMPS:ARP:1,2019-02-03T02:12:00Z,28.4330,-82.6670,-9.775,1111122 
COMPS,ioos:station:USF.COMPS:ARP:1,2019-02-03T02:18:00Z,28.4330,-82.6670,-9.754,1111122 
COMPS,ioos:station:USF.COMPS:ARP:1,2019-02-03T02:24:00Z,28.4330,-82.6670,-9.735,1111122 
COMPS,ioos:station:USF.COMPS:ARP:1,2019-02-03T02:30:00Z,28.4330,-82.6670,-9.719,1111122 
COMPS,ioos:station:USF.COMPS:ARP:1,2019-02-03T02:36:00Z,28.4330,-82.6670,-9.694,1111122 
COMPS,ioos:station:USF.COMPS:ARP:1,2019-02-03T02:42:00Z,28.4330,-82.6670,-9.675,1111122 
COMPS,ioos:station:USF.COMPS:ARP:1,2019-02-03T02:48:00Z,28.4330,-82.6670,-9.658,1111122 
COMPS,ioos:station:USF.COMPS:ARP:1,2019-02-03T02:54:00Z,28.4330,-82.6670,-9.641,1111122 
COMPS,ioos:station:USF.COMPS:ARP:1,2019-02-03T03:00:00Z,28.4330,-82.6670,-9.625,1111122 
COMPS,ioos:station:USF.COMPS:ARP:1,2019-02-03T03:06:00Z,28.4330,-82.6670,-9.604,1111122 
COMPS,ioos:station:USF.COMPS:ARP:1,2019-02-03T03:12:00Z,28.4330,-82.6670,-9.587,1111122 
COMPS,ioos:station:USF.COMPS:ARP:1,2019-02-03T03:18:00Z,28.4330,-82.6670,-9.568,1111122 
COMPS,ioos:station:USF.COMPS:ARP:1,2019-02-03T03:24:00Z,28.4330,-82.6670,-9.551,1111122 
COMPS,ioos:station:USF.COMPS:ARP:1,2019-02-03T03:30:00Z,28.4330,-82.6670,-9.534,1111122 
COMPS,ioos:station:USF.COMPS:ARP:1,2019-02-03T03:36:00Z,28.4330,-82.6670,-9.521,1111122 
COMPS,ioos:station:USF.COMPS:ARP:1,2019-02-03T03:42:00Z,28.4330,-82.6670,-9.503,1111122 
COMPS,ioos:station:USF.COMPS:ARP:1,2019-02-03T03:48:00Z,28.4330,-82.6670,-9.486,1111122 
COMPS,ioos:station:USF.COMPS:ARP:1,2019-02-03T03:54:00Z,28.4330,-82.6670,-9.471,1111122 
COMPS,ioos:station:USF.COMPS:ARP:1,2019-02-03T04:00:00Z,28.4330,-82.6670,-9.458,1111122 
COMPS,ioos:station:USF.COMPS:ARP:1,2019-02-03T04:06:00Z,28.4330,-82.6670,-9.45,1111122 
COMPS,ioos:station:USF.COMPS:ARP:1,2019-02-03T04:12:00Z,28.4330,-82.6670,-9.443,1111122 
COMPS,ioos:station:USF.COMPS:ARP:1,2019-02-03T04:18:00Z,28.4330,-82.6670,-9.434,1111122 
COMPS,ioos:station:USF.COMPS:ARP:1,2019-02-03T04:24:00Z,28.4330,-82.6670,-9.435,1111122 
COMPS,ioos:station:USF.COMPS:ARP:1,2019-02-03T04:30:00Z,28.4330,-82.6670,-9.436,1111122 
COMPS,ioos:station:USF.COMPS:ARP:1,2019-02-03T04:36:00Z,28.4330,-82.6670,-9.434,1111122 
COMPS,ioos:station:USF.COMPS:ARP:1,2019-02-03T04:42:00Z,28.4330,-82.6670,-9.438,1111122 
COMPS,ioos:station:USF.COMPS:ARP:1,2019-02-03T04:48:00Z,28.4330,-82.6670,-9.436,1111122 
COMPS,ioos:station:USF.COMPS:ARP:1,2019-02-03T04:54:00Z,28.4330,-82.6670,-9.425,1111122 
COMPS,ioos:station:USF.COMPS:ARP:1,2019-02-03T05:00:00Z,28.4330,-82.6670,-9.425,1111122 
COMPS,ioos:station:USF.COMPS:ARP:1,2019-02-03T05:06:00Z,28.4330,-82.6670,-9.424,1111122 
COMPS,ioos:station:USF.COMPS:ARP:1,2019-02-03T05:12:00Z,28.4330,-82.6670,-9.429,1111122 
COMPS,ioos:station:USF.COMPS:ARP:1,2019-02-03T05:18:00Z,28.4330,-82.6670,-9.442,1111122 
COMPS,ioos:station:USF.COMPS:ARP:1,2019-02-03T05:24:00Z,28.4330,-82.6670,-9.445,1111122 
COMPS,ioos:station:USF.COMPS:ARP:1,2019-02-03T05:30:00Z,28.4330,-82.6670,-9.464,1111122 
COMPS,ioos:station:USF.COMPS:ARP:1,2019-02-03T05:36:00Z,28.4330,-82.6670,-9.477,1111122 
COMPS,ioos:station:USF.COMPS:ARP:1,2019-02-03T05:42:00Z,28.4330,-82.6670,-9.497,1111122 
COMPS,ioos:station:USF.COMPS:ARP:1,2019-02-03T05:48:00Z,28.4330,-82.6670,-9.512,1111122 
COMPS,ioos:station:USF.COMPS:ARP:1,2019-02-03T05:54:00Z,28.4330,-82.6670,-9.526,1111122 
COMPS,ioos:station:USF.COMPS:ARP:1,2019-02-03T06:00:00Z,28.4330,-82.6670,-9.537,1111122 
COMPS,ioos:station:USF.COMPS:ARP:1,2019-02-03T06:06:00Z,28.4330,-82.6670,-9.554,1111122 
COMPS,ioos:station:USF.COMPS:ARP:1,2019-02-03T06:12:00Z,28.4330,-82.6670,-9.568,1111122 
COMPS,ioos:station:USF.COMPS:ARP:1,2019-02-03T06:18:00Z,28.4330,-82.6670,-9.593,1111122 
COMPS,ioos:station:USF.COMPS:ARP:1,2019-02-03T06:24:00Z,28.4330,-82.6670,-9.611,1111122 
COMPS,ioos:station:USF.COMPS:ARP:1,2019-02-03T06:30:00Z,28.4330,-82.6670,-9.631,1111122 
COMPS,ioos:station:USF.COMPS:ARP:1,2019-02-03T06:36:00Z,28.4330,-82.6670,-9.645,1111122 
COMPS,ioos:station:USF.COMPS:ARP:1,2019-02-03T06:42:00Z,28.4330,-82.6670,-9.662,1111122 
COMPS,ioos:station:USF.COMPS:ARP:1,2019-02-03T06:48:00Z,28.4330,-82.6670,-9.684,1111122 